Location: Unspecified
(45.4615°N, 74.0512°W)
Time: 09:03:22
(UTC-04:00)

Resurs 1-4 Rocket - Visible Passes

Search period start: 18 October 2017 00:00
Search period end: 28 October 2017 00:00
Orbit: 801 x 813 km, 98.5° (Epoch: 17 October)

Date Brightness Start Highest point End Pass type
(mag) Time Alt. Az. Time Alt. Az. Time Alt. Az.
18 Oct 4.9 02:55:54 10° NNE 02:56:12 12° NNE 02:56:12 12° NNE visible
18 Oct 4.3 04:36:31 10° NNW 04:37:16 13° NNW 04:37:16 13° NNW visible
19 Oct 4.4 04:11:28 10° N 04:12:17 14° N 04:12:17 14° N visible
20 Oct 4.6 03:46:39 10° N 03:47:18 14° N 03:47:18 14° N visible
21 Oct 4.8 03:21:58 10° NNE 03:22:19 12° NNE 03:22:19 12° NNE visible
22 Oct 4.5 04:38:08 10° NNW 04:38:24 11° NNW 04:38:24 11° NNW visible
23 Oct 4.6 04:13:05 10° N 04:13:25 12° N 04:13:25 12° N visible
24 Oct 4.7 03:48:14 10° N 03:48:26 11° N 03:48:26 11° N visible
